Project,Study,Ord_Occ,Event_Num,Date_Time_UTC,Date_Time_PST,Lat_Dec,Lon_Dec,Sta_ID,Line,Sta,Depth,Pressure,Temp0,Temp1,Salt0,CorrSalt0,Salt1,CorrSalt1,O2ml/L,AveCorrO2ml/L,StaCorrO2ml/L,FluorV,AveEstChl,StaEstChl,ISUSV,AveEstNO3,StaEstNO3,SigThetaTS0,SigThetaTS1,BAT,XMiss,SPAR,PAR,BTL_Depth,BTL_Temp,BTL_Salt,BTL_O2ml/L,BTL_Chl,BTL_Pha,BTL_NO3
CalCOFI,0701JD,0000,025,13-Jan-2007 10:26:51 AM,13-Jan-2007 2:26:51 AM,32.91350,-117.39484,093.3 028.0,093.3,028.0,514.000,518.294,6.7393,6.7398,34.3067,34.3054,34.3045,34.3046,0.37478,0.42,0.42,0.0258,,,1.4200,31.19,37.425,26.9146,26.9129,0.4067,90.3333,2.0883e+00,9.9990e+03,515,6.74 ,34.305,  .39,,,37.7
CalCOFI,0701JD,0000,025,13-Jan-2007 10:26:59 AM,13-Jan-2007 2:26:59 AM,32.91350,-117.39484,093.3 028.0,093.3,028.0,513.000,517.285,6.7425,6.7426,34.3062,34.3049,34.3042,34.3043,0.37645,0.42,0.42,0.0257,,,1.4520,32.13,38.412,26.9138,26.9122,0.4087,90.2873,2.1344e+00,9.9990e+03,,,,,,,
CalCOFI,0701JD,0000,025,13-Jan-2007 10:27:00 AM,13-Jan-2007 2:27:00 AM,32.91350,-117.39484,093.3 028.0,093.3,028.0,512.000,516.275,6.7480,6.7501,34.3060,34.3047,34.3035,34.3036,0.38133,0.43,0.43,0.0253,,,1.4583,32.32,38.606,26.9129,26.9106,0.4140,90.1683,2.6477e+00,9.9990e+03,,,,,,,
CalCOFI,0701JD,0000,025,13-Jan-2007 10:27:01 AM,13-Jan-2007 2:27:01 AM,32.91350,-117.39484,093.3 028.0,093.3,028.0,511.000,515.266,6.7811,6.7822,34.3040,34.3027,34.3010,34.3011,0.38527,0.44,0.43,0.0253,,,1.4493,32.05,38.328,26.9069,26.9044,0.4228,89.9694,2.3810e+00,9.9990e+03,,,,,,,
CalCOFI,0701JD,0000,025,13-Jan-2007 10:27:02 AM,13-Jan-2007 2:27:02 AM,32.91350,-117.39484,093.3 028.0,093.3,028.0,510.000,514.256,6.8079,6.8091,34.3024,34.3011,34.2998,34.2999,0.38750,0.44,0.43,0.0251,,,1.4379,31.72,37.977,26.9020,26.8998,0.4218,89.9928,2.2579e+00,9.9990e+03,,,,,,,
CalCOFI,0701JD,0000,025,13-Jan-2007 10:27:04 AM,13-Jan-2007 2:27:04 AM,32.91350,-117.39484,093.3 028.0,093.3,028.0,509.000,513.246,6.7914,6.8023,34.3032,34.3019,34.3008,34.3009,0.39248,0.44,0.44,0.0255,,,1.4182,31.14,37.369,26.9048,26.9015,0.4211,90.0089,2.3236e+00,9.9990e+03,,,,,,,
CalCOFI,0701JD,0000,025,13-Jan-2007 10:27:06 AM,13-Jan-2007 2:27:06 AM,32.91350,-117.39484,093.3 028.0,093.3,028.0,508.000,512.237,6.8341,6.8358,34.3014,34.3001,34.2987,34.2988,0.39876,0.45,0.45,0.0257,,,1.4064,30.79,37.005,26.8976,26.8952,0.4194,90.0467,2.1893e+00,9.9990e+03,,,,,,,
CalCOFI,0701JD,0000,025,13-Jan-2007 10:27:07 AM,13-Jan-2007 2:27:07 AM,32.91350,-117.39484,093.3 028.0,093.3,028.0,507.000,511.227,6.8640,6.8646,34.2999,34.2986,34.2977,34.2978,0.40207,0.46,0.45,0.0252,,,1.4149,31.04,37.267,26.8924,26.8906,0.4106,90.2447,1.8241e+00,9.9990e+03,,,,,,,
CalCOFI,0701JD,0000,025,13-Jan-2007 10:27:07 AM,13-Jan-2007 2:27:07 AM,32.91350,-117.39484,093.3 028.0,093.3,028.0,506.000,510.218,6.8744,6.8758,34.2997,34.2984,34.2973,34.2974,0.40459,0.46,0.46,0.0252,,,1.4184,31.14,37.375,26.8908,26.8888,0.4094,90.2712,2.5566e+00,9.9990e+03,,,,,,,
CalCOFI,0701JD,0000,025,13-Jan-2007 10:27:08 AM,13-Jan-2007 2:27:08 AM,32.91350,-117.39484,093.3 028.0,093.3,028.0,505.000,509.208,6.8823,6.8828,34.2991,34.2978,34.2971,34.2972,0.40646,0.46,0.46,0.0259,,,1.4212,31.23,37.462,26.8893,26.8876,0.4084,90.2935,2.1396e+00,9.9990e+03,,,,,,,
CalCOFI,0701JD,0000,025,13-Jan-2007 10:27:10 AM,13-Jan-2007 2:27:10 AM,32.91350,-117.39484,093.3 028.0,093.3,028.0,504.000,508.198,6.8829,6.8851,34.2992,34.2979,34.2969,34.2970,0.40985,0.47,0.46,0.0254,,,1.4219,31.25,37.483,26.8892,26.8871,0.4136,90.1761,2.0924e+00,9.9990e+03,,,,,,,
CalCOFI,0701JD,0000,025,13-Jan-2007 10:27:11 AM,13-Jan-2007 2:27:11 AM,32.91350,-117.39484,093.3 028.0,093.3,028.0,503.000,507.189,6.8855,6.8847,34.2986,34.2973,34.2967,34.2968,0.41025,0.47,0.46,0.0257,,,1.3908,30.33,36.524,26.8884,26.8871,0.4078,90.3066,2.4057e+00,9.9990e+03,,,,,,,
CalCOFI,0701JD,0000,025,13-Jan-2007 10:27:12 AM,13-Jan-2007 2:27:12 AM,32.91350,-117.39484,093.3 028.0,093.3,028.0,502.000,506.179,6.8882,6.8885,34.2984,34.2971,34.2966,34.2967,0.41208,0.47,0.46,0.0252,,,1.3871,30.23,36.410,26.8878,26.8864,0.4061,90.3458,2.6000e+00,9.9990e+03,,,,,,,
CalCOFI,0701JD,0000,025,13-Jan-2007 10:27:13 AM,13-Jan-2007 2:27:13 AM,32.91350,-117.39484,093.3 028.0,093.3,028.0,501.000,505.170,6.8898,6.8902,34.2979,34.2966,34.2965,34.2966,0.41251,0.47,0.47,0.0260,,,1.3846,30.15,36.332,26.8873,26.8861,0.4068,90.3293,2.2285e+00,9.9990e+03,,,,,,,
CalCOFI,0701JD,0000,025,13-Jan-2007 10:27:14 AM,13-Jan-2007 2:27:14 AM,32.91350,-117.39484,093.3 028.0,093.3,028.0,500.000,504.160,6.8890,6.8900,34.2981,34.2968,34.2964,34.2965,0.41330,0.47,0.47,0.0255,,,1.3784,29.97,36.141,26.8875,26.8860,0.4076,90.3122,2.2491e+00,9.9990e+03,,,,,,,
CalCOFI,0701JD,0000,025,13-Jan-2007 10:27:16 AM,13-Jan-2007 2:27:16 AM,32.91350,-117.39484,093.3 028.0,093.3,028.0,499.000,503.151,6.8884,6.8897,34.2982,34.2969,34.2962,34.2963,0.41566,0.47,0.47,0.0254,,,1.3921,30.37,36.564,26.8877,26.8859,0.4075,90.3153,2.4270e+00,9.9990e+03,,,,,,,
CalCOFI,0701JD,0000,025,13-Jan-2007 10:27:17 AM,13-Jan-2007 2:27:17 AM,32.91350,-117.39484,093.3 028.0,093.3,028.0,498.000,502.141,6.8957,6.8956,34.2977,34.2964,34.2959,34.2960,0.41613,0.47,0.47,0.0254,,,1.3844,30.15,36.326,26.8862,26.8849,0.4070,90.3254,2.3998e+00,9.9990e+03,,,,,,,
CalCOFI,0701JD,0000,025,13-Jan-2007 10:27:18 AM,13-Jan-2007 2:27:18 AM,32.91350,-117.39484,093.3 028.0,093.3,028.0,497.000,501.132,6.9033,6.9038,34.2971,34.2958,34.2955,34.2956,0.41714,0.47,0.47,0.0257,,,1.3951,30.46,36.656,26.8847,26.8834,0.4068,90.3290,2.4248e+00,9.9990e+03,,,,,,,
CalCOFI,0701JD,0000,025,13-Jan-2007 10:27:19 AM,13-Jan-2007 2:27:19 AM,32.91350,-117.39484,093.3 028.0,093.3,028.0,496.000,500.122,6.9047,6.9051,34.2970,34.2957,34.2953,34.2954,0.41847,0.48,0.47,0.0254,,,1.4059,30.78,36.990,26.8844,26.8831,0.4076,90.3113,2.3574e+00,9.9990e+03,,,,,,,
CalCOFI,0701JD,0000,025,13-Jan-2007 10:27:20 AM,13-Jan-2007 2:27:20 AM,32.91350,-117.39484,093.3 028.0,093.3,028.0,495.000,499.113,6.9073,6.9079,34.2969,34.2956,34.2951,34.2952,0.41996,0.48,0.47,0.0256,,,1.4166,31.09,37.320,26.8840,26.8825,0.4080,90.3041,2.2645e+00,9.9990e+03,,,,,,,
CalCOFI,0701JD,0000,025,13-Jan-2007 10:27:21 AM,13-Jan-2007 2:27:21 AM,32.91350,-117.39484,093.3 028.0,093.3,028.0,494.000,498.103,6.9104,6.9109,34.2966,34.2953,34.2948,34.2949,0.42058,0.48,0.48,0.0254,,,1.4125,30.97,37.193,26.8833,26.8818,0.4078,90.3082,2.3153e+00,9.9990e+03,,,,,,,
CalCOFI,0701JD,0000,025,13-Jan-2007 10:27:22 AM,13-Jan-2007 2:27:22 AM,32.91350,-117.39484,093.3 028.0,093.3,028.0,493.000,497.094,6.9173,6.9187,34.2959,34.2946,34.2942,34.2943,0.42171,0.48,0.48,0.0250,,,1.4133,30.99,37.218,26.8819,26.8803,0.4073,90.3197,2.6737e+00,9.9990e+03,,,,,,,
CalCOFI,0701JD,0000,025,13-Jan-2007 10:27:23 AM,13-Jan-2007 2:27:23 AM,32.91350,-117.39484,093.3 028.0,093.3,028.0,492.000,496.084,6.9207,6.9218,34.2958,34.2945,34.2940,34.2941,0.42346,0.48,0.48,0.0258,,,1.4034,30.70,36.912,26.8813,26.8797,0.4080,90.3037,2.2898e+00,9.9990e+03,,,,,,,
CalCOFI,0701JD,0000,025,13-Jan-2007 10:27:24 AM,13-Jan-2007 2:27:24 AM,32.91350,-117.39484,093.3 028.0,093.3,028.0,491.000,495.075,6.9223,6.9234,34.2957,34.2944,34.2940,34.2941,0.42424,0.48,0.48,0.0253,,,1.3859,30.19,36.373,26.8810,26.8794,0.4085,90.2913,2.5278e+00,9.9990e+03,,,,,,,
CalCOFI,0701JD,0000,025,13-Jan-2007 10:27:25 AM,13-Jan-2007 2:27:25 AM,32.91350,-117.39484,093.3 028.0,093.3,028.0,490.000,494.065,6.9277,6.9291,34.2954,34.2941,34.2937,34.2938,0.42382,0.48,0.48,0.0257,,,1.4253,31.35,37.588,26.8800,26.8784,0.4102,90.2544,2.6845e+00,9.9990e+03,,,,,,,
CalCOFI,0701JD,0000,025,13-Jan-2007 10:27:26 AM,13-Jan-2007 2:27:26 AM,32.91350,-117.39484,093.3 028.0,093.3,028.0,489.000,493.056,6.9273,6.9296,34.2953,34.2940,34.2937,34.2938,0.42507,0.48,0.48,0.0253,,,1.4069,30.81,37.020,26.8799,26.8784,0.4099,90.2602,2.2160e+00,9.9990e+03,,,,,,,
CalCOFI,0701JD,0000,025,13-Jan-2007 10:27:28 AM,13-Jan-2007 2:27:28 AM,32.91350,-117.39484,093.3 028.0,093.3,028.0,488.000,492.046,6.9248,6.9277,34.2957,34.2944,34.2936,34.2937,0.42801,0.49,0.48,0.0258,,,1.3875,30.24,36.422,26.8806,26.8785,0.4104,90.2502,2.2837e+00,9.9990e+03,,,,,,,
CalCOFI,0701JD,0000,025,13-Jan-2007 10:27:29 AM,13-Jan-2007 2:27:29 AM,32.91350,-117.39484,093.3 028.0,093.3,028.0,487.000,491.037,6.9339,6.9340,34.2950,34.2937,34.2935,34.2936,0.43038,0.49,0.49,0.0253,,,1.3952,30.46,36.659,26.8788,26.8775,0.4100,90.2579,2.0202e+00,9.9990e+03,,,,,,,
CalCOFI,0701JD,0000,025,13-Jan-2007 10:27:30 AM,13-Jan-2007 2:27:30 AM,32.91350,-117.39484,093.3 028.0,093.3,028.0,486.000,490.027,6.9532,6.9525,34.2945,34.2932,34.2922,34.2923,0.43262,0.49,0.49,0.0258,,,1.3957,30.48,36.675,26.8757,26.8740,0.4096,90.2675,1.9190e+00,9.9990e+03,,,,,,,
CalCOFI,0701JD,0000,025,13-Jan-2007 10:27:31 AM,13-Jan-2007 2:27:31 AM,32.91350,-117.39484,093.3 028.0,093.3,028.0,485.000,489.018,6.9637,6.9637,34.2936,34.2923,34.2918,34.2919,0.43429,0.50,0.49,0.0255,,,1.3956,30.48,36.672,26.8736,26.8722,0.4083,90.2958,2.7073e+00,9.9990e+03,,,,,,,
CalCOFI,0701JD,0000,025,13-Jan-2007 10:27:32 AM,13-Jan-2007 2:27:32 AM,32.91350,-117.39484,093.3 028.0,093.3,028.0,484.000,488.008,6.9707,6.9716,34.2932,34.2919,34.2916,34.2917,0.43606,0.50,0.49,0.0255,,,1.3665,29.62,35.774,26.8723,26.8709,0.4081,90.3018,2.3985e+00,9.9990e+03,,,,,,,
CalCOFI,0701JD,0000,025,13-Jan-2007 10:27:33 AM,13-Jan-2007 2:27:33 AM,32.91350,-117.39484,093.3 028.0,093.3,028.0,483.000,486.999,6.9758,6.9766,34.2929,34.2916,34.2912,34.2913,0.43859,0.50,0.50,0.0256,,,1.3850,30.16,36.345,26.8713,26.8699,0.4061,90.3457,2.3999e+00,9.9990e+03,,,,,,,
CalCOFI,0701JD,0000,025,13-Jan-2007 10:27:34 AM,13-Jan-2007 2:27:34 AM,32.91350,-117.39484,093.3 028.0,093.3,028.0,482.000,485.989,6.9783,6.9785,34.2927,34.2914,34.2911,34.2912,0.44244,0.51,0.50,0.0253,,,1.4276,31.41,37.659,26.8708,26.8696,0.4046,90.3805,2.0712e+00,9.9990e+03,,,,,,,
CalCOFI,0701JD,0000,025,13-Jan-2007 10:27:35 AM,13-Jan-2007 2:27:35 AM,32.91350,-117.39484,093.3 028.0,093.3,028.0,481.000,484.980,6.9839,6.9841,34.2925,34.2912,34.2908,34.2909,0.44483,0.51,0.51,0.0250,,,1.4186,31.15,37.381,26.8700,26.8686,0.4061,90.3467,2.5117e+00,9.9990e+03,,,,,,,
CalCOFI,0701JD,0000,025,13-Jan-2007 10:27:36 AM,13-Jan-2007 2:27:36 AM,32.91350,-117.39484,093.3 028.0,093.3,028.0,480.000,483.970,7.0043,7.0049,34.2914,34.2901,34.2895,34.2896,0.44810,0.51,0.51,0.0254,,,1.3992,30.58,36.783,26.8662,26.8647,0.4037,90.3990,2.4833e+00,9.9990e+03,,,,,,,
CalCOFI,0701JD,0000,025,13-Jan-2007 10:27:38 AM,13-Jan-2007 2:27:38 AM,32.91350,-117.39484,093.3 028.0,093.3,028.0,479.000,482.961,7.0116,7.0132,34.2909,34.2896,34.2892,34.2893,0.45330,0.52,0.52,0.0252,,,1.4170,31.10,37.332,26.8649,26.8633,0.4015,90.4490,1.9919e+00,9.9990e+03,,,,,,,
CalCOFI,0701JD,0000,025,13-Jan-2007 10:27:39 AM,13-Jan-2007 2:27:39 AM,32.91350,-117.39484,093.3 028.0,093.3,028.0,478.000,481.952,7.0217,7.0219,34.2904,34.2891,34.2885,34.2886,0.45709,0.52,0.52,0.0258,,,1.4152,31.05,37.276,26.8631,26.8615,0.4000,90.4834,2.6075e+00,9.9990e+03,,,,,,,
CalCOFI,0701JD,0000,025,13-Jan-2007 10:27:40 AM,13-Jan-2007 2:27:40 AM,32.91350,-117.39484,093.3 028.0,093.3,028.0,477.000,480.942,7.0414,7.0422,34.2892,34.2879,34.2872,34.2873,0.45988,0.53,0.52,0.0252,,,1.4091,30.87,37.088,26.8594,26.8577,0.3985,90.5167,2.4850e+00,9.9990e+03,,,,,,,
CalCOFI,0701JD,0000,025,13-Jan-2007 10:27:40 AM,13-Jan-2007 2:27:40 AM,32.91350,-117.39484,093.3 028.0,093.3,028.0,476.000,479.933,7.0515,7.0516,34.2884,34.2871,34.2868,34.2869,0.46211,0.53,0.53,0.0255,,,1.3731,29.81,35.978,26.8573,26.8561,0.3995,90.4931,2.1390e+00,9.9990e+03,,,,,,,
CalCOFI,0701JD,0000,025,13-Jan-2007 10:27:41 AM,13-Jan-2007 2:27:41 AM,32.91350,-117.39484,093.3 028.0,093.3,028.0,475.000,478.923,7.0580,7.0585,34.2880,34.2867,34.2866,34.2867,0.46404,0.53,0.53,0.0257,,,1.3747,29.86,36.027,26.8562,26.8550,0.3993,90.4979,2.2013e+00,9.9990e+03,,,,,,,
CalCOFI,0701JD,0000,025,13-Jan-2007 10:27:43 AM,13-Jan-2007 2:27:43 AM,32.91350,-117.39484,093.3 028.0,093.3,028.0,474.000,477.914,7.0611,7.0618,34.2878,34.2865,34.2864,34.2865,0.46747,0.54,0.53,0.0257,,,1.4028,30.69,36.894,26.8556,26.8543,0.3998,90.4874,2.2316e+00,9.9990e+03,,,,,,,
CalCOFI,0701JD,0000,025,13-Jan-2007 10:27:44 AM,13-Jan-2007 2:27:44 AM,32.91350,-117.39484,093.3 028.0,093.3,028.0,473.000,476.904,7.0632,7.0629,34.2874,34.2861,34.2862,34.2863,0.46969,0.54,0.54,-9.990e-29,,,1.3947,30.45,36.644,26.8550,26.8540,0.3993,90.4977,2.0486e+00,9.9990e+03,,,,,,,
CalCOFI,0701JD,0000,025,13-Jan-2007 10:27:45 AM,13-Jan-2007 2:27:45 AM,32.91350,-117.39484,093.3 028.0,093.3,028.0,472.000,475.895,7.0679,7.0684,34.2875,34.2862,34.2860,34.2861,0.47148,0.54,0.54,-9.990e-29,,,1.4003,30.61,36.817,26.8543,26.8531,0.4020,90.4373,2.3434e+00,9.9990e+03,,,,,,,
CalCOFI,0701JD,0000,025,13-Jan-2007 10:27:46 AM,13-Jan-2007 2:27:46 AM,32.91350,-117.39484,093.3 028.0,093.3,028.0,471.000,474.886,7.0701,7.0704,34.2873,34.2860,34.2859,34.2860,0.47399,0.54,0.54,-9.990e-29,,,1.3980,30.55,36.746,26.8538,26.8528,0.4027,90.4226,2.0158e+00,9.9990e+03,,,,,,,
CalCOFI,0701JD,0000,025,13-Jan-2007 10:27:47 AM,13-Jan-2007 2:27:47 AM,32.91350,-117.39484,093.3 028.0,093.3,028.0,470.000,473.876,7.0749,7.0754,34.2869,34.2856,34.2856,34.2857,0.47803,0.55,0.55,-9.990e-29,,,1.3858,30.19,36.369,26.8529,26.8518,0.3999,90.4857,2.7723e+00,9.9990e+03,,,,,,,
CalCOFI,0701JD,0000,025,13-Jan-2007 10:27:48 AM,13-Jan-2007 2:27:48 AM,32.91350,-117.39484,093.3 028.0,093.3,028.0,469.000,472.867,7.0862,7.0867,34.2878,34.2865,34.2855,34.2856,0.47985,0.55,0.55,-9.990e-29,,,1.3850,30.16,36.345,26.8520,26.8502,0.4007,90.4667,2.3130e+00,9.9990e+03,,,,,,,
CalCOFI,0701JD,0000,025,13-Jan-2007 10:27:49 AM,13-Jan-2007 2:27:49 AM,32.91350,-117.39484,093.3 028.0,093.3,028.0,468.000,471.857,7.1238,7.1256,34.2850,34.2837,34.2834,34.2835,0.47995,0.55,0.55,-9.990e-29,,,1.3931,30.40,36.595,26.8447,26.8431,0.4056,90.3581,2.1061e+00,9.9990e+03,,,,,,,
CalCOFI,0701JD,0000,025,13-Jan-2007 10:27:51 AM,13-Jan-2007 2:27:51 AM,32.91350,-117.39499,093.3 028.0,093.3,028.0,467.000,470.848,7.0775,7.0899,34.2856,34.2843,34.2857,34.2858,0.48350,0.56,0.55,-9.990e-29,,,1.3911,30.34,36.533,26.8515,26.8498,0.4029,90.4186,2.6194e+00,9.9990e+03,,,,,,,
CalCOFI,0701JD,0000,025,13-Jan-2007 10:27:52 AM,13-Jan-2007 2:27:52 AM,32.91350,-117.39500,093.3 028.0,093.3,028.0,466.000,469.839,7.1190,7.1206,34.2869,34.2856,34.2834,34.2835,0.48957,0.56,0.56,-9.990e-29,,,1.3737,29.83,35.996,26.8467,26.8438,0.4064,90.3385,2.2625e+00,9.9990e+03,,,,,,,
CalCOFI,0701JD,0000,025,13-Jan-2007 10:27:53 AM,13-Jan-2007 2:27:53 AM,32.91350,-117.39500,093.3 028.0,093.3,028.0,465.000,468.829,7.1492,7.1490,34.2829,34.2816,34.2818,34.2819,0.49120,0.56,0.56,-9.990e-29,,,1.3518,29.19,35.320,26.8395,26.8386,0.4123,90.2071,2.1444e+00,9.9990e+03,,,,,,,
CalCOFI,0701JD,0000,025,13-Jan-2007 10:27:54 AM,13-Jan-2007 2:27:54 AM,32.91350,-117.39495,093.3 028.0,093.3,028.0,464.000,467.820,7.1505,7.1511,34.2830,34.2817,34.2820,34.2821,0.49371,0.57,0.57,-9.990e-29,,,1.3907,30.33,36.521,26.8393,26.8384,0.4130,90.1916,2.2410e+00,9.9990e+03,,,,,,,
CalCOFI,0701JD,0000,025,13-Jan-2007 10:27:55 AM,13-Jan-2007 2:27:55 AM,32.91350,-117.39484,093.3 028.0,093.3,028.0,463.000,466.810,7.1525,7.1529,34.2831,34.2818,34.2820,34.2821,0.49618,0.57,0.57,0.0265,,,1.3765,29.91,36.082,26.8391,26.8382,0.4138,90.1716,2.0159e+00,9.9990e+03,,,,,,,
CalCOFI,0701JD,0000,025,13-Jan-2007 10:27:56 AM,13-Jan-2007 2:27:56 AM,32.91350,-117.39484,093.3 028.0,093.3,028.0,462.000,465.801,7.1550,7.1554,34.2830,34.2817,34.2818,34.2819,0.49794,0.57,0.57,0.0255,,,1.3822,30.08,36.258,26.8387,26.8377,0.4143,90.1620,2.1891e+00,9.9990e+03,,,,,,,
CalCOFI,0701JD,0000,025,13-Jan-2007 10:27:57 AM,13-Jan-2007 2:27:57 AM,32.91350,-117.39484,093.3 028.0,093.3,028.0,461.000,464.792,7.1572,7.1576,34.2829,34.2816,34.2817,34.2818,0.49987,0.58,0.57,0.0257,,,1.3705,29.74,35.897,26.8382,26.8372,0.4145,90.1564,2.1181e+00,9.9990e+03,,,,,,,
CalCOFI,0701JD,0000,025,13-Jan-2007 10:27:58 AM,13-Jan-2007 2:27:58 AM,32.91350,-117.39484,093.3 028.0,093.3,028.0,460.000,463.782,7.1591,7.1593,34.2828,34.2815,34.2816,34.2817,0.50244,0.58,0.58,0.0254,,,1.3625,29.50,35.651,26.8379,26.8370,0.4146,90.1556,2.3519e+00,9.9990e+03,,,,,,,
CalCOFI,0701JD,0000,025,13-Jan-2007 10:27:59 AM,13-Jan-2007 2:27:59 AM,32.91350,-117.39484,093.3 028.0,093.3,028.0,459.000,462.773,7.1677,7.1678,34.2826,34.2813,34.2812,34.2813,0.50456,0.58,0.58,0.0251,,,1.3617,29.48,35.626,26.8365,26.8355,0.4153,90.1397,2.3811e+00,9.9990e+03,,,,,,,
CalCOFI,0701JD,0000,025,13-Jan-2007 10:28:00 AM,13-Jan-2007 2:28:00 AM,32.91350,-117.39484,093.3 028.0,093.3,028.0,458.000,461.764,7.1716,7.1723,34.2821,34.2808,34.2809,34.2810,0.50519,0.58,0.58,0.0256,,,1.3530,29.22,35.357,26.8356,26.8345,0.4182,90.0732,2.4887e+00,9.9990e+03,,,,,,,
CalCOFI,0701JD,0000,025,13-Jan-2007 10:28:01 AM,13-Jan-2007 2:28:01 AM,32.91350,-117.39484,093.3 028.0,093.3,028.0,457.000,460.754,7.1746,7.1750,34.2820,34.2807,34.2807,34.2808,0.50607,0.58,0.58,0.0253,,,1.3472,29.05,35.179,26.8351,26.8340,0.4195,90.0449,2.5947e+00,9.9990e+03,,,,,,,
CalCOFI,0701JD,0000,025,13-Jan-2007 10:28:03 AM,13-Jan-2007 2:28:03 AM,32.91350,-117.39484,093.3 028.0,093.3,028.0,456.000,459.745,7.1772,7.1774,34.2819,34.2806,34.2806,34.2807,0.50832,0.59,0.58,0.0251,,,1.3453,29.00,35.120,26.8346,26.8336,0.4212,90.0058,2.2379e+00,9.9990e+03,,,,,,,
CalCOFI,0701JD,0000,025,13-Jan-2007 10:28:04 AM,13-Jan-2007 2:28:04 AM,32.91350,-117.39484,093.3 028.0,093.3,028.0,455.000,458.736,7.1841,7.1838,34.2818,34.2805,34.2804,34.2805,0.51094,0.59,0.59,0.0253,,,1.3766,29.92,36.086,26.8336,26.8325,0.4238,89.9483,2.4597e+00,9.9990e+03,,,,,,,
CalCOFI,0701JD,0000,025,13-Jan-2007 10:28:05 AM,13-Jan-2007 2:28:05 AM,32.91350,-117.39484,093.3 028.0,093.3,028.0,454.000,457.726,7.1932,7.1940,34.2817,34.2804,34.2803,34.2804,0.51361,0.59,0.59,0.0254,,,1.3797,30.01,36.181,26.8322,26.8310,0.4292,89.8270,2.5919e+00,9.9990e+03,,,,,,,
CalCOFI,0701JD,0000,025,13-Jan-2007 10:28:06 AM,13-Jan-2007 2:28:06 AM,32.91350,-117.39484,093.3 028.0,093.3,028.0,453.000,456.717,7.2106,7.2116,34.2808,34.2795,34.2793,34.2794,0.51507,0.59,0.59,0.0249,,,1.3864,30.21,36.388,26.8290,26.8278,0.4293,89.8250,2.4532e+00,9.9990e+03,,,,,,,
CalCOFI,0701JD,0000,025,13-Jan-2007 10:28:07 AM,13-Jan-2007 2:28:07 AM,32.91350,-117.39484,093.3 028.0,093.3,028.0,452.000,455.708,7.2168,7.2173,34.2802,34.2789,34.2791,34.2792,0.51627,0.60,0.59,0.0257,,,1.3828,30.10,36.277,26.8277,26.8268,0.4303,89.8015,1.9252e+00,9.9990e+03,,,,,,,
CalCOFI,0701JD,0000,025,13-Jan-2007 10:28:07 AM,13-Jan-2007 2:28:07 AM,32.91350,-117.39484,093.3 028.0,093.3,028.0,451.000,454.698,7.2188,7.2193,34.2803,34.2790,34.2792,34.2793,0.51743,0.60,0.60,0.0254,,,1.3522,29.20,35.333,26.8275,26.8266,0.4308,89.7914,2.3905e+00,9.9990e+03,,,,,,,
CalCOFI,0701JD,0000,025,13-Jan-2007 10:28:09 AM,13-Jan-2007 2:28:09 AM,32.91350,-117.39484,093.3 028.0,093.3,028.0,450.000,453.689,7.2168,7.2188,34.2802,34.2789,34.2794,34.2795,0.51869,0.60,0.60,0.0254,,,1.3661,29.61,35.762,26.8277,26.8268,0.4309,89.7880,2.3593e+00,9.9990e+03,,,,,,,
CalCOFI,0701JD,0000,025,13-Jan-2007 10:28:10 AM,13-Jan-2007 2:28:10 AM,32.91350,-117.39484,093.3 028.0,093.3,028.0,449.000,452.680,7.2157,7.2168,34.2804,34.2791,34.2793,34.2794,0.52124,0.60,0.60,0.0253,,,1.4073,30.82,37.033,26.8280,26.8270,0.4311,89.7835,2.6239e+00,9.9990e+03,,,,,,,
CalCOFI,0701JD,0000,025,13-Jan-2007 10:28:11 AM,13-Jan-2007 2:28:11 AM,32.91350,-117.39484,093.3 028.0,093.3,028.0,448.000,451.670,7.2268,7.2257,34.2803,34.2790,34.2790,34.2791,0.52323,0.60,0.60,0.0263,,,1.4080,30.84,37.054,26.8263,26.8255,0.4306,89.7958,2.0057e+00,9.9990e+03,,,,,,,
CalCOFI,0701JD,0000,025,13-Jan-2007 10:28:12 AM,13-Jan-2007 2:28:12 AM,32.91350,-117.39492,093.3 028.0,093.3,028.0,447.000,450.661,7.2324,7.2330,34.2797,34.2784,34.2787,34.2788,0.52398,0.60,0.60,-9.990e-29,,,1.3944,30.44,36.635,26.8251,26.8242,0.4329,89.7432,2.6848e+00,9.9990e+03,,,,,,,
CalCOFI,0701JD,0000,025,13-Jan-2007 10:28:13 AM,13-Jan-2007 2:28:13 AM,32.91350,-117.39499,093.3 028.0,093.3,028.0,446.000,449.652,7.2381,7.2399,34.2795,34.2782,34.2783,34.2784,0.52469,0.61,0.60,-9.990e-29,,,1.3623,29.50,35.644,26.8241,26.8229,0.4333,89.7345,2.2978e+00,9.9990e+03,,,,,,,
CalCOFI,0701JD,0000,025,13-Jan-2007 10:28:15 AM,13-Jan-2007 2:28:15 AM,32.91350,-117.39500,093.3 028.0,093.3,028.0,445.000,448.643,7.2363,7.2376,34.2800,34.2787,34.2787,34.2788,0.52839,0.61,0.61,0.0255,,,1.3418,28.90,35.012,26.8247,26.8235,0.4328,89.7464,2.3914e+00,9.9990e+03,,,,,,,
CalCOFI,0701JD,0000,025,13-Jan-2007 10:28:16 AM,13-Jan-2007 2:28:16 AM,32.91350,-117.39500,093.3 028.0,093.3,028.0,444.000,447.634,7.2458,7.2469,34.2794,34.2781,34.2783,34.2784,0.53133,0.61,0.61,0.0259,,,1.3703,29.73,35.891,26.8229,26.8219,0.4319,89.7655,2.2056e+00,9.9990e+03,,,,,,,
CalCOFI,0701JD,0000,025,13-Jan-2007 10:28:17 AM,13-Jan-2007 2:28:17 AM,32.91350,-117.39500,093.3 028.0,093.3,028.0,443.000,446.624,7.2624,7.2629,34.2794,34.2781,34.2779,34.2780,0.53196,0.61,0.61,0.0258,,,1.3880,30.25,36.437,26.8207,26.8193,0.4308,89.7913,1.9174e+00,9.9990e+03,,,,,,,
CalCOFI,0701JD,0000,025,13-Jan-2007 10:28:17 AM,13-Jan-2007 2:28:17 AM,32.91350,-117.39500,093.3 028.0,093.3,028.0,442.000,445.615,7.2744,7.2749,34.2789,34.2776,34.2777,34.2778,0.53361,0.62,0.62,0.0252,,,1.3799,30.01,36.187,26.8185,26.8176,0.4313,89.7782,2.6712e+00,9.9990e+03,,,,,,,
CalCOFI,0701JD,0000,025,13-Jan-2007 10:28:18 AM,13-Jan-2007 2:28:18 AM,32.91350,-117.39500,093.3 028.0,093.3,028.0,441.000,444.606,7.2831,7.2835,34.2789,34.2776,34.2778,34.2779,0.53505,0.62,0.62,0.0251,,,1.3803,30.03,36.200,26.8173,26.8164,0.4309,89.7888,2.4503e+00,9.9990e+03,,,,,,,
CalCOFI,0701JD,0000,025,13-Jan-2007 10:28:20 AM,13-Jan-2007 2:28:20 AM,32.91350,-117.39500,093.3 028.0,093.3,028.0,440.000,443.596,7.2703,7.2775,34.2787,34.2774,34.2782,34.2783,0.53638,0.62,0.62,0.0256,,,1.3663,29.62,35.768,26.8189,26.8175,0.4314,89.7771,2.2131e+00,9.9990e+03,,,,,,,
CalCOFI,0701JD,0000,025,13-Jan-2007 10:28:22 AM,13-Jan-2007 2:28:22 AM,32.91350,-117.39500,093.3 028.0,093.3,028.0,439.000,442.587,7.2797,7.2853,34.2786,34.2773,34.2780,34.2781,0.53820,0.62,0.62,0.0253,,,1.3641,29.55,35.700,26.8175,26.8162,0.4273,89.8684,2.2412e+00,9.9990e+03,,,,,,,
CalCOFI,0701JD,0000,025,13-Jan-2007 10:28:25 AM,13-Jan-2007 2:28:25 AM,32.91350,-117.39500,093.3 028.0,093.3,028.0,438.000,441.578,7.2781,7.2791,34.2789,34.2776,34.2781,34.2782,0.53782,0.62,0.62,-9.990e-29,,,1.3793,30.00,36.169,26.8179,26.8172,0.4269,89.8786,2.3449e+00,9.9990e+03,438,7.29 ,34.277,  .61,,,35.7
CalCOFI,0701JD,0000,025,13-Jan-2007 10:28:46 AM,13-Jan-2007 2:28:46 AM,32.91350,-117.39496,093.3 028.0,093.3,028.0,437.000,440.569,7.2770,7.2789,34.2790,34.2777,34.2781,34.2782,0.53973,0.62,0.62,0.0252,,,1.3689,29.69,35.848,26.8182,26.8172,0.4197,90.0402,2.3368e+00,9.9990e+03,,,,,,,
CalCOFI,0701JD,0000,025,13-Jan-2007 10:29:34 AM,13-Jan-2007 2:29:34 AM,32.91350,-117.39484,093.3 028.0,093.3,028.0,436.000,439.559,7.3256,7.3249,34.2797,34.2784,34.2785,34.2786,0.54808,0.63,0.63,0.0257,,,1.3264,28.44,34.537,26.8119,26.8111,0.4080,90.3031,2.2813e+00,9.9990e+03,,,,,,,
CalCOFI,0701JD,0000,025,13-Jan-2007 10:29:37 AM,13-Jan-2007 2:29:37 AM,32.91350,-117.39484,093.3 028.0,093.3,028.0,435.000,438.550,7.3513,7.3511,34.2793,34.2780,34.2787,34.2788,0.55099,0.64,0.64,0.0251,,,1.3456,29.01,35.129,26.8080,26.8075,0.4016,90.4466,2.3596e+00,9.9990e+03,,,,,,,
CalCOFI,0701JD,0000,025,13-Jan-2007 10:29:38 AM,13-Jan-2007 2:29:38 AM,32.91350,-117.39484,093.3 028.0,093.3,028.0,434.000,437.541,7.3473,7.3440,34.2794,34.2781,34.2792,34.2793,0.55417,0.64,0.64,0.0254,,,1.3459,29.02,35.138,26.8086,26.8089,0.3981,90.5251,1.9854e+00,9.9990e+03,,,,,,,
CalCOFI,0701JD,0000,025,13-Jan-2007 10:29:39 AM,13-Jan-2007 2:29:39 AM,32.91350,-117.39484,093.3 028.0,093.3,028.0,433.000,436.532,7.3600,7.3622,34.2796,34.2783,34.2786,34.2787,0.55729,0.65,0.65,0.0253,,,1.3752,29.88,36.042,26.8070,26.8059,0.3961,90.5734,2.4635e+00,9.9990e+03,,,,,,,